Theta_e
346 348 347 347 347 346 346 346 345 344 344 343 343 342 342 341 341 339 339 340 340 340 340 340 340 340 341 342 341 341 341 342 341 341 340 340 341 341 340 341 340 338 337 337 337 338 337 337 338 337 337 337 336 336 336 335 335 334 334 333 332 332 332 331 332 333 334 334 333 331 329 328 326 322 319 317 315 313 312 313 313 313 312 311 312
345 347 347 347 346 346 345 345 345 344 343 343 343 343 342 342 341 340 339 340 340 340 340 340 339 338 340 340 339 338 340 340 340 340 341 340 340 339 338 338 340 339 337 338 338 338 338 337 337 337 336 336 335 335 334 334 334 333 334 334 331 330 329 329 330 332 334 334 334 332 329 328 325 320 316 314 313 313 312 313 313 312 311 310 310
345 346 346 346 345 345 345 345 345 344 344 343 343 343 343 342 341 340 340 340 339 339 340 340 339 338 337 339 338 339 340 340 340 340 340 340 338 338 337 338 339 339 338 338 338 338 338 338 336 336 335 335 334 334 333 332 332 332 332 332 332 329 327 326 327 329 331 333 334 333 331 329 325 320 316 313 312 312 312 313 313 312 311 309 309
346 346 346 346 346 345 344 345 345 344 344 343 343 343 342 342 341 341 341 340 339 340 340 340 339 338 337 340 341 340 340 340 340 339 339 338 337 337 337 337 337 337 336 337 338 337 336 336 335 334 333 333 332 332 331 330 330 330 331 330 331 330 327 324 323 324 325 329 332 333 332 331 329 323 317 313 312 312 311 312 313 312 310 309 308
345 345 344 344 345 344 344 344 344 344 343 344 343 343 342 341 341 341 341 340 340 340 340 339 338 338 339 341 341 340 340 339 339 338 337 337 336 336 336 336 336 336 335 335 336 335 334 334 333 333 332 331 330 330 329 328 327 328 329 329 330 330 327 323 320 319 318 320 324 329 330 330 330 324 318 314 311 311 311 311 311 311 309 308 308
345 345 344 345 345 345 344 344 344 344 344 344 343 342 341 340 340 341 341 341 341 341 339 338 338 338 340 340 339 339 339 338 338 337 337 336 335 335 334 335 335 334 334 333 333 334 333 332 332 331 330 329 328 328 326 326 326 326 327 328 328 329 327 323 320 317 315 313 315 318 321 324 326 325 322 316 311 310 310 309 309 309 309 308 307
344 345 343 344 345 345 344 344 344 343 344 344 343 342 342 341 341 341 340 341 340 340 339 338 338 339 339 338 338 338 338 339 339 338 337 335 334 333 334 334 334 332 331 331 331 332 332 331 330 329 328 327 326 325 325 324 323 323 324 324 324 325 326 324 322 318 313 312 312 313 314 317 320 322 322 318 316 315 312 309 308 308 308 308 308
342 344 344 343 345 345 344 343 343 343 344 343 343 343 341 340 341 340 339 340 339 338 339 338 339 340 339 339 337 336 338 339 338 337 335 333 333 333 333 332 331 330 329 329 328 329 329 328 327 327 326 325 324 324 323 322 321 320 320 320 320 320 320 321 320 316 312 312 313 314 312 313 315 316 317 317 318 318 314 312 311 310 309 308 308
341 344 344 344 345 345 344 343 343 343 344 343 340 339 339 339 340 340 339 338 337 338 339 338 339 339 339 339 337 336 338 337 335 334 333 332 332 331 330 330 329 328 327 327 326 326 326 324 324 324 323 323 322 321 320 319 319 318 317 316 316 316 316 317 318 317 315 314 314 315 313 312 312 313 314 314 314 315 313 312 313 314 312 309 308
341 344 344 344 345 344 343 343 343 343 343 340 337 336 337 339 339 339 338 337 336 337 338 338 338 338 338 339 338 336 336 335 333 332 331 331 331 329 328 328 327 327 326 325 325 324 323 322 322 323 321 320 319 318 317 316 315 314 314 314 314 314 314 314 315 315 315 314 315 315 314 313 313 313 313 314 314 313 312 310 311 313 313 311 309
340 342 344 345 345 344 343 343 342 342 342 339 336 335 337 338 338 339 339 337 337 338 338 338 337 337 338 339 338 336 335 334 333 332 331 330 329 327 326 326 325 326 325 324 323 322 321 321 321 321 319 318 317 316 316 315 313 312 312 312 313 313 313 313 312 313 312 312 312 313 313 313 313 313 313 313 313 314 313 311 310 310 311 310 309
340 342 344 344 344 343 343 343 342 341 340 339 336 335 337 338 338 339 340 338 338 338 338 338 337 337 338 339 337 336 334 333 333 331 330 330 328 326 325 324 324 324 323 323 322 321 321 321 320 319 319 317 316 315 314 314 312 312 312 312 313 313 313 312 312 312 311 311 311 311 311 311 311 312 312 312 312 313 313 312 310 310 310 309 309
341 342 344 344 343 342 342 342 342 341 340 339 337 337 338 338 337 339 339 338 338 338 338 339 338 337 338 337 337 335 334 333 332 331 330 330 328 326 324 324 324 323 323 323 322 321 321 321 320 319 318 316 315 314 313 311 311 311 311 311 311 312 312 312 312 312 311 311 310 310 310 310 310 311 311 311 310 311 312 313 311 310 310 309 308
342 341 342 344 344 342 342 342 341 340 340 339 338 338 338 338 338 339 338 338 338 339 338 337 337 336 336 336 335 335 334 333 332 331 330 329 328 326 325 324 323 323 323 323 322 322 321 320 319 318 316 315 313 312 311 310 310 310 310 310 310 311 311 312 312 311 311 310 310 309 309 309 309 309 309 309 309 309 309 310 311 311 310 308 308
342 341 341 343 344 343 342 342 341 341 340 339 338 338 338 338 338 338 338 338 338 338 338 337 337 336 336 335 334 334 334 332 332 331 328 327 326 325 323 323 323 323 324 324 322 321 320 319 317 316 314 313 311 310 309 310 310 309 309 310 309 310 310 310 310 310 310 310 309 309 308 308 308 308 308 308 308 308 307 307 308 310 309 308 308
342 341 341 342 344 344 343 342 341 340 340 339 338 338 338 338 338 338 338 338 338 338 338 338 337 336 336 335 333 333 333 332 331 329 327 326 325 324 323 322 322 323 323 323 322 320 318 317 316 314 312 311 310 309 309 309 309 309 309 308 308 308 309 309 309 309 309 309 309 308 308 308 308 308 308 308 307 307 307 306 306 307 308 308 308
342 342 341 342 343 344 343 342 341 340 340 339 338 338 338 338 338 338 337 338 338 338 338 337 337 336 336 335 333 332 331 331 330 328 327 325 323 323 323 321 321 321 322 321 320 318 317 315 313 312 311 310 310 309 309 309 309 309 309 309 308 308 309 309 309 309 309 309 308 308 307 307 307 307 307 307 307 306 306 306 305 305 306 307 306
342 341 342 342 342 344 343 342 341 340 340 339 338 337 338 338 337 337 337 338 338 338 337 337 337 336 335 334 332 331 330 330 328 327 326 324 323 324 322 319 319 320 320 319 318 316 315 314 312 312 311 310 309 309 309 309 309 309 309 308 308 308 308 308 308 308 308 308 307 307 307 307 307 306 306 306 306 306 305 305 305 304 304 306 306
341 341 342 341 342 343 343 341 341 341 340 339 338 337 337 337 337 336 336 337 337 337 337 336 336 335 334 333 332 331 330 328 328 326 325 323 323 323 320 318 318 319 319 318 317 316 315 314 313 312 311 310 309 308 309 309 308 308 308 308 308 308 308 308 308 308 308 308 308 307 307 306 306 306 305 305 305 305 304 305 304 303 303 304 304
340 341 342 341 341 343 342 341 341 340 340 339 338 337 337 337 336 335 336 336 336 336 337 336 336 334 333 332 331 330 329 327 327 325 323 322 321 319 317 317 318 319 319 318 317 316 315 313 312 311 310 309 308 308 308 308 308 308 308 308 308 308 308 307 307 307 307 307 307 307 306 306 306 305 305 305 305 304 304 303 303 303 303 303 303
341 342 341 341 341 343 342 342 341 340 340 339 338 338 337 336 335 335 335 336 336 336 336 335 334 334 332 331 330 329 327 326 325 324 322 321 320 318 318 319 320 320 318 317 317 315 314 312 311 309 309 308 308 308 308 308 308 308 307 307 307 307 306 307 306 306 306 306 306 305 305 305 306 305 305 304 304 303 303 303 303 302 302 302 303
341 342 342 341 340 342 342 341 341 340 339 339 338 337 336 335 336 335 335 336 336 336 335 334 333 332 331 330 329 329 327 325 324 322 321 320 319 318 319 320 320 319 318 317 315 314 312 311 310 309 308 307 307 307 307 308 308 307 307 307 306 306 306 306 306 306 306 306 306 305 305 305 305 305 304 304 303 303 302 302 302 302 302 302 303
339 342 341 340 340 341 342 341 340 340 339 339 337 336 335 336 335 335 335 336 335 335 334 334 332 331 330 329 328 327 326 325 322 321 320 320 318 317 318 320 320 319 317 316 315 313 312 311 309 308 307 307 307 307 307 308 307 307 307 307 306 306 306 306 306 306 306 306 306 305 305 305 305 305 304 303 304 303 302 302 303 302 302 302 303
340 341 341 340 339 340 341 341 340 339 339 338 337 335 335 335 335 335 334 334 334 333 333 333 331 330 329 328 327 326 325 323 321 320 320 319 317 316 318 320 320 318 316 315 314 312 311 310 308 307 306 306 307 307 307 306 306 306 306 306 306 306 306 306 306 306 306 306 306 306 305 305 305 305 304 303 303 303 302 302 303 303 301 302 303
341 341 341 341 339 339 340 340 340 339 338 338 337 336 335 335 335 335 334 333 333 332 332 332 330 329 329 328 326 325 323 321 320 320 319 317 316 317 319 319 319 317 316 315 313 312 311 309 308 307 306 306 306 306 306 306 306 306 306 306 306 306 306 306 306 305 305 306 306 305 305 305 305 304 304 303 304 304 303 302 302 302 301 302 303
342 343 341 341 339 338 339 340 339 338 338 338 337 336 336 335 335 334 334 333 333 331 332 331 329 328 328 326 326 324 322 321 320 319 318 316 316 317 318 318 317 316 315 314 312 311 310 308 307 306 306 306 305 305 305 305 306 306 306 306 306 306 306 306 305 305 305 305 305 305 304 304 304 303 303 302 303 303 303 302 301 301 301 302 303
341 342 341 340 340 339 339 339 339 338 338 337 337 336 336 335 334 334 333 333 332 332 331 330 328 327 327 326 325 325 322 321 320 319 318 316 316 316 317 317 316 315 314 313 312 310 309 307 306 306 306 305 305 305 305 305 306 306 306 306 306 306 305 305 305 305 305 305 305 304 303 303 302 302 301 300 300 302 302 301 299 300 300 302 302
340 341 341 340 339 339 339 338 338 337 336 336 335 335 335 334 334 333 332 332 331 331 330 329 328 327 326 325 325 324 322 320 320 319 317 316 315 315 316 316 315 314 313 312 311 310 309 307 307 306 305 305 305 305 305 305 305 305 306 306 306 306 306 305 305 305 305 305 303 303 302 300 298 298 297 296 295 297 299 299 298 299 300 301 301
340 340 340 340 339 338 338 337 337 336 335 334 334 334 334 333 332 331 330 330 330 329 328 328 326 325 324 323 322 320 319 320 320 318 316 315 315 315 316 315 315 313 312 312 311 309 308 307 307 306 305 305 305 305 304 305 305 306 305 305 305 306 305 304 304 305 304 303 303 302 299 296 293 293 292 292 291 292 294 296 296 297 298 299 300
339 340 340 339 338 338 336 337 336 336 335 334 333 333 333 332 331 330 330 329 329 328 327 326 324 322 321 320 318 318 319 319 318 316 315 314 314 315 316 315 314 313 312 311 311 309 309 308 307 306 305 305 305 305 304 304 305 305 305 305 305 305 305 304 304 305 304 303 301 299 296 294 294 295 294 293 291 290 291 292 293 293 294 296 298
338 340 340 338 338 336 335 335 335 335 334 333 332 332 332 332 331 330 329 329 328 327 326 325 323 319 318 317 316 317 319 318 316 314 314 314 314 315 315 315 314 312 312 311 310 309 309 308 307 306 306 306 306 305 303 303 304 304 305 305 305 305 305 305 304 304 304 303 302 299 298 297 299 301 300 298 295 293 293 294 295 294 294 295 295
338 339 339 338 338 336 336 335 335 334 334 332 332 332 331 331 330 329 329 328 327 327 326 326 322 318 317 317 316 317 317 315 314 314 314 314 314 315 315 315 313 312 311 311 310 309 309 308 307 307 306 306 306 304 302 302 303 304 304 305 305 305 304 304 305 304 304 304 303 302 301 300 299 300 301 301 300 298 297 297 297 296 296 297 295
338 337 337 337 337 336 336 336 335 334 333 333 332 331 331 330 329 328 328 327 327 327 325 323 319 318 318 318 317 318 316 314 314 314 314 314 315 316 315 314 313 312 312 311 310 310 309 309 308 307 307 307 306 304 302 302 303 303 304 304 305 305 305 305 305 304 304 304 303 302 302 301 299 298 299 300 300 301 300 299 298 298 298 299 297
337 338 337 336 336 336 336 335 335 334 334 333 332 331 330 330 328 328 327 326 326 325 322 318 316 317 318 317 317 317 315 315 314 314 314 315 316 316 315 314 312 312 311 311 310 310 310 309 308 308 307 306 305 303 301 301 302 303 303 304 305 305 305 304 304 304 304 304 303 303 303 302 301 298 296 296 298 301 301 301 300 300 300 301 299
337 338 338 336 335 336 335 334 334 333 334 333 332 331 330 329 327 327 326 324 324 323 319 317 316 318 318 317 316 316 316 316 315 314 315 316 316 315 314 313 312 311 311 311 310 310 310 309 308 308 306 305 303 300 298 298 300 302 303 304 305 305 304 304 304 304 304 303 304 304 302 302 302 297 293 293 296 300 302 301 301 302 302 302 301
337 337 337 336 335 335 335 334 333 332 333 332 331 330 328 327 327 327 326 325 324 322 319 317 317 318 317 317 317 318 318 317 316 316 316 316 315 314 313 313 312 310 310 310 310 310 310 309 308 307 305 304 302 297 296 297 299 301 302 303 305 305 304 304 304 304 304 302 303 303 302 302 301 296 291 292 296 299 301 301 301 302 302 301 301
338 336 337 336 335 335 334 333 332 332 332 331 330 329 328 328 327 326 325 324 322 320 319 318 318 318 318 318 319 319 319 318 317 317 316 315 315 314 313 312 311 309 310 310 310 310 309 308 308 306 305 305 302 298 296 297 298 301 302 303 305 305 304 304 303 303 303 303 303 303 302 302 301 295 291 293 296 299 301 301 302 303 302 301 300
338 338 337 336 335 334 333 333 332 332 331 330 330 329 329 329 328 327 326 325 323 322 321 320 319 319 319 320 321 320 319 318 317 316 316 315 314 313 312 311 310 310 310 310 309 309 308 308 307 306 305 306 304 299 297 297 297 300 302 302 304 305 305 304 303 303 303 302 301 302 302 303 301 295 291 293 296 300 302 302 302 302 301 301 299
337 337 337 336 335 334 333 332 332 331 330 329 329 329 328 329 329 328 326 326 325 324 323 321 320 320 321 321 321 319 318 317 315 315 315 314 313 312 311 310 310 309 309 309 308 307 307 306 306 305 305 307 305 300 297 297 297 299 300 301 304 306 305 304 303 303 303 301 298 297 300 302 299 293 291 293 295 298 302 302 301 301 301 300 297
336 336 336 335 334 333 332 332 332 331 330 329 329 328 328 328 329 328 327 326 326 325 323 321 321 320 320 320 319 317 315 314 314 314 313 311 310 309 308 307 307 306 306 307 306 306 306 306 306 306 306 307 306 301 297 297 297 297 299 301 304 306 305 305 303 302 303 302 298 296 296 297 295 292 291 293 293 295 299 301 300 299 299 297 295
336 335 335 334 333 332 331 331 331 331 329 329 329 328 328 328 328 327 326 326 326 325 323 321 320 319 319 317 315 314 313 313 312 311 310 308 307 306 305 305 305 305 305 306 306 306 306 306 306 306 306 307 307 302 298 297 298 298 298 300 303 305 305 305 304 302 302 302 301 299 296 293 292 291 292 292 293 293 296 300 299 296 295 294 295
336 335 334 333 333 332 331 331 332 331 329 328 328 328 328 327 327 326 326 325 325 324 321 320 318 316 315 313 312 312 312 311 310 309 307 306 305 304 304 304 303 304 305 305 305 305 306 306 306 307 307 307 307 305 300 297 298 298 298 299 302 305 305 304 304 303 302 302 302 302 300 295 292 292 292 292 292 292 294 297 297 294 293 294 296
336 335 333 333 332 331 331 331 331 331 329 329 329 329 328 327 327 325 324 323 322 320 318 317 316 314 312 310 310 310 310 309 308 307 307 306 306 304 304 303 303 303 304 305 305 305 306 307 307 308 307 306 307 306 303 300 298 298 298 299 301 304 304 304 304 303 303 303 302 302 302 298 293 292 292 292 292 292 293 294 294 293 293 296 298
336 335 333 332 332 331 331 332 330 329 328 328 328 328 328 327 327 325 323 320 318 317 315 314 313 312 311 310 309 309 308 308 308 308 308 307 307 305 304 303 303 304 304 305 305 306 307 307 307 307 307 307 306 306 304 302 299 298 298 298 300 302 302 302 303 303 303 302 303 302 301 298 293 292 292 292 292 292 293 293 293 293 294 297 299
335 334 333 332 332 332 332 331 330 329 328 328 327 327 326 327 327 325 323 320 318 316 314 313 312 311 310 309 309 308 308 308 308 308 308 307 307 305 304 304 303 304 305 305 305 306 306 307 307 307 306 306 307 306 304 302 301 300 299 299 299 300 301 302 302 303 303 302 302 302 300 297 293 291 292 292 292 294 295 293 293 294 296 298 300
335 333 332 332 332 332 332 331 330 330 329 329 328 327 326 327 327 326 324 322 319 317 315 314 312 310 309 309 308 307 307 308 308 308 308 308 307 305 304 304 303 304 305 305 305 305 305 306 306 306 305 306 306 305 304 302 301 300 300 299 298 298 300 301 301 301 301 300 300 301 300 296 293 292 293 293 295 298 298 295 294 296 297 299 300
334 333 332 332 333 332 332 331 330 329 329 329 329 329 328 328 327 325 325 323 320 318 316 314 312 310 309 308 308 307 308 308 308 309 309 308 307 306 305 304 303 303 304 304 304 304 304 305 305 305 304 305 304 304 303 302 300 300 299 299 298 297 298 300 300 300 300 299 299 299 298 295 293 293 293 294 296 298 297 296 296 298 299 299 300
334 332 332 333 333 332 332 331 329 329 328 328 329 329 328 328 328 326 324 322 319 317 316 314 312 310 309 308 307 307 308 309 309 309 309 309 308 307 305 304 303 303 303 303 304 304 303 304 304 304 304 303 303 302 303 301 299 298 298 298 298 297 297 299 299 299 300 300 298 297 295 294 295 295 295 295 296 297 298 298 300 300 300 300 300
333 332 332 332 332 332 331 330 329 329 328 328 329 329 328 328 327 325 323 320 318 316 315 313 311 310 309 308 307 308 308 309 309 309 309 309 309 308 306 304 303 303 303 303 303 303 303 303 303 303 302 303 302 302 302 301 299 297 297 298 298 298 298 298 298 298 299 299 298 298 297 297 297 298 298 298 299 300 301 301 301 301 301 300 300
333 332 332 331 331 331 331 330 329 329 328 328 329 328 328 327 326 323 322 320 318 316 314 313 311 310 310 309 308 308 308 309 309 308 308 308 309 307 306 305 304 304 303 303 302 302 302 301 302 302 302 303 302 301 301 301 299 297 297 298 298 298 298 298 297 296 298 299 300 300 300 299 299 300 300 301 301 301 301 301 301 301 300 301 300
332 332 332 332 331 330 331 329 329 329 328 328 329 328 327 326 325 323 322 320 317 315 314 313 312 311 310 310 309 309 309 308 308 308 308 309 308 306 305 305 305 304 303 302 302 302 301 300 301 302 302 301 300 300 299 300 298 297 297 298 298 298 298 298 297 297 298 300 301 301 301 301 301 301 301 301 301 301 300 300 300 300 301 301 300
Wind_Speed
16 21 23 21 20 20 18 19 21 20 20 22 23 23 22 20 20 19 20 19 19 19 18 16 16 15 13 12 12 12 11 11 10 10 10 8 6 5 4 3 1 1 2 2 3 5 6 6 4 2 2 4 7 8 7 6 5 4 3 3 3 3 4 5 5 3 3 8 9 11 9 9 9 9 9 8 8 9 9 9 9 8 8 7 7
16 18 21 21 20 20 19 20 21 21 22 23 24 23 22 21 21 20 20 20 18 17 17 16 14 14 14 14 14 12 11 12 10 9 8 7 7 5 4 3 3 3 4 4 5 5 5 5 4 3 4 5 7 7 6 6 4 3 2 0 2 3 5 5 5 4 3 8 9 10 8 8 10 10 9 9 8 9 9 9 9 9 9 8 7
17 16 19 21 21 21 20 20 22 23 23 23 23 23 22 21 21 21 20 19 18 16 16 14 13 14 16 15 13 12 11 12 11 11 9 8 7 4 3 4 4 5 5 5 6 5 6 6 5 5 6 7 6 6 6 5 4 3 2 2 1 4 4 6 7 6 5 2 8 8 6 6 7 7 8 8 9 9 8 8 7 7 8 8 7
17 16 17 20 21 22 21 21 22 23 23 23 23 22 22 20 20 20 20 18 16 15 15 14 14 14 13 12 12 12 12 13 13 11 9 8 6 4 4 5 5 5 5 6 7 6 7 7 7 7 7 7 6 5 5 4 4 3 3 3 2 2 5 6 8 8 9 5 2 4 6 7 4 5 7 7 8 9 9 7 7 6 7 7 7
18 18 17 17 19 21 22 22 22 22 22 23 22 23 21 20 20 19 19 19 16 16 16 15 16 15 14 14 13 12 12 13 13 11 9 7 6 6 5 5 6 7 7 7 7 7 7 8 7 7 6 6 5 4 3 3 4 4 4 3 2 2 5 4 7 9 10 9 5 3 3 4 3 9 9 5 6 7 8 7 6 6 6 6 6
18 18 18 17 18 20 21 22 22 22 22 22 22 24 23 21 21 19 19 18 16 17 17 15 16 16 16 16 14 13 13 13 12 12 11 9 8 7 6 6 6 7 8 8 7 7 8 9 8 7 6 5 4 3 3 4 5 6 5 5 4 4 3 3 5 7 10 12 10 9 5 4 4 8 7 4 6 6 7 7 6 5 4 4 5
17 17 17 18 19 19 20 21 22 22 21 21 22 23 22 21 21 21 19 17 16 17 17 16 17 18 17 15 14 12 11 10 10 11 11 9 8 8 7 8 8 9 10 9 8 7 8 9 8 6 4 4 4 4 4 5 7 7 7 6 6 5 4 4 4 6 8 10 10 10 9 8 7 3 1 2 4 5 5 6 5 5 5 4 5
17 17 18 18 19 20 19 20 21 21 20 21 21 20 20 21 21 22 20 18 19 19 18 18 17 17 16 14 12 12 10 9 11 11 10 9 9 9 8 9 10 11 11 10 8 7 7 7 7 6 4 3 4 5 7 8 8 8 8 8 8 8 7 6 6 6 7 8 9 9 10 9 10 9 6 4 2 2 4 4 4 4 3 3 4
19 19 19 18 19 21 21 20 21 21 19 21 22 20 20 22 19 18 19 20 22 21 19 19 18 16 16 13 12 12 12 12 11 10 9 9 10 10 9 10 11 12 10 7 6 5 5 5 7 6 5 5 6 8 9 10 10 9 10 9 9 10 10 9 8 8 8 8 8 8 9 9 9 9 8 7 5 2 2 2 3 3 2 1 3
18 18 18 18 20 22 22 21 21 20 19 21 24 20 17 19 18 19 21 22 23 22 20 20 20 19 17 16 16 15 15 14 11 11 10 11 11 11 11 12 13 12 9 6 4 4 5 6 8 7 7 7 9 10 10 10 11 11 11 11 11 11 11 12 11 10 10 10 10 9 8 7 7 8 8 7 6 4 2 1 0 1 3 3 1
17 17 17 18 21 22 22 22 21 21 21 23 26 22 16 18 22 22 21 21 23 23 22 21 22 21 17 16 17 16 16 15 13 12 12 12 12 12 15 15 14 11 8 5 5 6 7 8 8 7 8 9 9 10 10 9 10 11 12 13 13 13 13 13 13 13 12 12 11 10 9 9 8 7 7 7 6 4 3 1 1 3 1 3 1
16 17 17 17 19 20 21 21 21 23 23 24 26 25 20 22 25 22 20 21 22 22 22 21 22 21 17 16 16 15 15 16 15 14 14 15 14 15 18 16 13 11 8 6 6 7 9 8 8 8 9 9 10 10 9 9 9 10 11 12 13 13 13 13 14 13 12 11 11 11 10 10 9 8 7 7 7 6 5 3 3 4 3 2 2
16 16 16 17 17 18 20 21 22 23 24 25 26 26 25 25 25 23 22 23 22 22 22 22 21 20 18 17 16 14 15 16 16 15 17 17 15 17 19 16 14 13 10 8 8 8 8 8 8 8 9 10 10 10 9 10 11 12 13 13 14 13 13 14 14 12 11 11 10 10 10 9 9 8 8 8 8 8 7 6 4 4 4 3 2
15 15 16 16 16 18 21 23 23 23 24 25 26 26 26 26 25 24 24 24 23 22 22 22 20 18 17 17 17 17 17 16 16 18 20 19 18 20 19 16 15 13 10 9 9 8 9 9 8 9 11 11 11 10 10 11 12 13 14 14 14 13 13 14 13 12 12 12 10 9 9 9 9 9 10 10 10 10 9 8 7 3 3 4 3
14 15 17 17 18 20 22 23 23 23 24 24 25 26 26 26 26 23 23 24 22 22 22 21 19 18 17 17 18 18 19 17 17 20 22 22 23 23 19 17 16 13 11 10 9 10 10 10 10 11 12 11 10 11 11 12 13 13 13 13 14 14 14 13 13 13 13 12 10 9 9 9 10 10 10 11 10 10 9 10 10 5 2 4 4
15 16 17 18 20 21 22 23 22 23 23 24 25 26 24 24 24 23 22 22 21 21 21 20 19 18 18 18 17 19 21 19 16 20 24 24 23 23 20 18 17 15 12 11 10 11 11 11 12 13 12 11 11 11 12 12 13 13 13 14 14 13 13 13 13 13 11 10 10 9 9 10 10 10 10 9 9 9 9 10 11 9 5 4 3
16 16 17 18 19 20 22 22 24 24 25 26 25 24 23 23 23 23 22 22 21 21 20 19 18 17 18 19 16 18 22 18 16 21 25 24 22 22 21 20 19 17 14 12 13 13 13 13 13 13 12 11 11 11 12 12 13 13 13 14 13 12 12 12 11 10 9 9 9 9 9 9 9 8 8 8 8 8 9 9 10 10 8 5 4
16 18 18 18 18 19 21 23 25 26 26 27 26 25 23 23 26 28 26 24 21 21 20 19 18 17 18 19 17 18 20 17 18 21 23 24 24 22 21 20 19 17 14 14 15 15 14 13 13 13 12 11 12 12 12 13 13 13 13 13 12 11 12 11 10 9 9 9 9 9 9 8 7 7 8 8 8 7 7 7 8 9 9 7 6
15 17 17 17 17 20 22 23 24 26 27 27 26 25 23 23 29 31 26 22 21 21 20 20 19 18 19 20 20 19 18 18 19 20 21 24 25 23 22 20 17 15 14 15 15 15 14 13 13 12 12 12 12 12 12 13 13 13 13 12 11 11 11 10 9 9 8 8 8 7 7 6 6 6 7 7 7 7 6 6 6 7 9 8 8
16 16 17 17 18 21 24 24 25 27 28 28 26 25 25 26 29 28 22 21 21 21 20 19 18 19 20 22 21 19 18 18 19 20 21 24 25 24 22 19 16 13 13 14 14 14 14 13 13 12 12 12 12 12 12 13 13 12 12 12 11 11 11 10 9 8 8 8 8 7 6 5 5 5 5 5 5 5 6 6 6 7 8 8 9
17 16 17 18 18 21 24 25 26 26 27 28 27 25 26 27 27 24 22 23 23 21 21 20 18 20 22 21 20 20 19 19 20 22 24 25 26 24 20 17 14 13 13 14 14 14 14 14 13 13 12 13 13 13 13 12 12 12 12 12 11 11 10 10 9 9 8 8 8 8 7 6 5 5 4 4 4 4 5 6 6 7 8 8 9
18 17 18 18 17 20 23 25 26 26 27 28 28 27 27 27 26 24 23 24 24 22 22 22 21 21 23 21 21 21 20 20 22 25 27 28 27 24 19 15 14 13 13 14 15 14 14 14 13 13 13 13 13 13 12 12 12 12 12 11 11 10 10 9 9 8 8 7 8 8 7 7 6 5 5 5 5 5 6 6 6 7 8 8 8
18 18 17 16 17 20 23 25 26 26 27 28 27 28 28 26 25 25 24 24 24 22 23 24 22 22 25 23 22 21 21 21 23 27 29 28 26 23 19 15 13 13 14 14 15 15 14 14 13 13 13 13 13 13 12 12 13 12 12 11 11 10 10 9 9 9 8 8 7 7 7 6 5 5 5 5 5 6 6 7 6 6 7 8 7
18 18 16 15 18 20 21 23 25 26 27 28 27 27 28 26 25 26 26 24 23 24 24 24 21 23 26 25 22 22 23 23 26 29 30 29 26 22 18 14 13 14 15 15 15 15 14 14 14 13 13 13 13 13 13 13 12 12 12 11 11 10 9 9 9 8 8 7 7 7 7 6 5 4 5 5 5 5 6 7 7 6 6 7 7
18 19 18 17 18 18 18 21 24 26 26 27 27 26 26 26 27 28 27 26 25 24 23 23 23 26 28 26 23 23 24 27 30 31 31 30 26 21 16 14 14 15 15 16 16 15 14 14 14 14 14 13 13 13 13 13 12 12 12 11 11 10 9 9 8 8 8 7 7 7 7 6 5 5 5 5 5 5 6 7 7 7 7 8 8
20 19 18 18 18 17 18 20 23 26 27 27 27 27 26 26 27 28 27 27 26 24 22 24 27 29 28 26 24 23 24 29 32 32 32 30 26 20 16 14 15 16 16 16 16 15 14 14 14 14 14 14 14 14 13 13 13 12 12 11 11 10 9 9 8 8 8 7 7 7 7 7 6 5 5 5 5 5 5 7 7 8 8 9 9
19 18 18 19 19 18 18 20 21 23 25 26 25 25 27 26 27 29 27 27 27 26 26 28 28 27 26 25 25 24 23 28 33 33 32 30 25 19 15 15 16 16 16 16 16 15 15 15 15 14 14 14 14 14 13 13 13 13 12 11 11 10 10 9 8 8 7 7 7 7 7 7 6 6 5 6 6 5 5 6 7 8 8 9 9
18 18 19 20 20 19 18 19 20 21 24 26 23 23 26 27 28 29 28 27 28 28 29 29 26 24 24 24 25 23 23 29 34 33 32 30 25 19 15 15 16 16 16 17 16 16 15 15 15 15 15 14 14 14 13 13 13 13 12 12 11 11 10 9 9 8 7 7 7 7 8 7 7 6 6 6 7 6 5 6 7 8 9 9 9
19 19 19 19 20 19 17 17 20 24 26 26 24 24 27 28 29 29 27 28 29 28 27 26 23 22 23 22 23 23 25 31 34 32 32 29 23 17 14 15 16 16 16 16 16 17 16 15 15 15 15 15 14 13 13 14 14 13 13 12 11 11 10 10 9 8 8 7 7 8 8 8 8 8 7 7 8 7 7 6 7 8 9 9 9
19 19 19 18 19 20 18 17 20 25 27 26 25 26 28 28 27 26 26 26 27 26 24 23 22 22 22 22 23 26 29 31 32 31 31 27 20 15 14 15 15 16 16 16 17 17 16 16 16 16 16 15 13 13 15 15 15 14 13 12 12 11 10 10 10 9 8 8 8 8 8 8 7 7 8 8 8 8 8 7 8 9 10 9 9
19 20 20 19 19 20 19 19 22 25 26 26 26 27 27 27 26 25 25 25 25 24 23 22 21 21 23 24 26 28 29 29 30 31 29 24 19 15 14 15 16 16 16 17 17 17 16 16 16 16 16 15 13 14 17 18 16 15 14 13 12 11 10 10 9 9 9 9 8 8 7 4 3 2 3 5 7 7 8 8 9 9 10 11 10
20 21 21 21 21 21 20 20 23 26 26 26 27 27 26 26 25 25 25 25 24 24 23 22 20 20 24 26 28 29 28 27 28 29 26 21 18 16 15 15 16 16 17 17 17 17 16 16 16 16 15 14 12 15 19 19 18 17 16 14 12 11 10 10 9 9 9 9 8 8 6 3 2 2 1 2 4 5 7 8 8 7 8 10 10
20 19 20 20 20 19 21 23 25 28 27 25 27 27 25 25 25 25 26 25 24 23 22 22 20 21 24 26 27 28 26 25 26 25 23 20 18 16 16 17 17 16 17 17 17 17 16 16 16 15 14 13 11 15 21 21 19 18 17 14 12 11 10 9 9 9 9 9 9 8 7 5 4 3 2 1 2 4 5 7 7 6 6 7 9
18 18 18 19 17 18 22 25 26 27 27 26 26 26 25 25 24 25 26 25 24 23 21 21 21 23 25 25 24 25 24 24 24 23 22 20 18 17 18 18 18 17 17 17 18 17 16 16 15 15 15 14 12 15 21 22 20 20 17 12 10 10 10 9 9 8 8 8 8 7 7 6 5 3 2 2 1 1 3 5 4 5 5 5 6
17 17 18 18 18 20 23 25 24 25 27 26 25 25 25 25 25 26 25 24 23 22 20 21 24 27 28 25 23 23 23 23 23 22 21 20 19 19 19 19 19 18 17 17 18 17 16 16 15 15 16 15 14 17 22 22 22 21 16 10 8 9 9 9 9 8 8 8 7 6 6 6 5 3 2 4 4 2 1 3 3 2 3 4 3
16 17 18 18 20 23 25 25 26 27 28 26 25 25 26 26 26 26 25 23 23 22 21 24 27 27 26 24 23 23 23 22 23 23 22 21 20 20 20 20 18 17 17 17 17 17 17 16 15 15 15 14 15 20 22 22 22 22 16 9 8 9 10 9 9 8 8 8 8 6 6 6 5 3 3 4 6 5 1 2 2 2 3 2 2
17 18 19 20 23 25 26 27 28 28 27 26 26 27 27 26 25 25 25 23 22 21 22 25 26 25 25 25 24 23 23 24 24 24 23 22 21 21 21 20 18 17 17 18 18 17 16 16 16 16 15 13 16 21 22 22 24 23 17 10 8 10 10 9 10 9 8 8 8 7 7 6 5 4 3 5 7 5 2 2 2 2 3 3 4
18 21 22 23 24 25 26 28 28 27 26 27 28 28 27 26 25 24 24 23 21 22 24 25 25 25 25 25 24 23 24 24 24 24 23 22 22 22 22 20 18 18 18 18 17 16 16 17 16 16 15 14 16 21 23 23 25 25 19 11 9 10 10 10 10 10 8 8 9 11 9 7 6 7 5 6 7 5 2 2 2 3 3 4 6
20 22 24 25 25 25 26 28 28 26 26 28 28 28 27 26 26 25 25 24 23 24 25 25 25 25 25 24 23 23 23 23 23 23 22 21 22 23 22 20 18 18 18 17 17 17 17 16 16 16 16 15 16 21 24 24 25 25 21 14 10 9 11 10 10 11 9 8 9 13 12 9 8 9 7 6 7 5 3 1 3 3 3 5 8
20 22 24 25 26 26 26 27 28 27 27 28 28 27 25 26 27 27 25 24 24 25 25 24 24 24 24 22 22 22 22 22 22 22 20 20 21 21 20 19 18 17 17 17 17 17 16 16 16 17 17 15 16 21 25 26 25 25 23 17 12 9 11 11 11 11 11 10 9 12 13 11 10 9 8 6 6 6 5 2 3 3 3 6 9
20 23 25 24 24 25 25 26 27 28 27 27 28 26 26 27 28 27 26 25 24 24 24 23 23 23 22 21 20 21 21 20 20 20 19 18 18 18 19 17 16 16 16 17 17 16 16 16 16 17 17 16 16 20 26 27 26 25 24 21 16 10 8 11 12 11 11 12 11 11 12 12 10 9 8 7 5 4 5 3 1 2 4 6 8
21 24 25 24 23 24 25 26 27 27 27 27 28 27 26 26 26 25 24 24 24 23 23 23 22 22 21 20 20 21 21 20 19 19 18 17 17 17 18 17 16 16 16 17 17 16 16 16 16 17 18 17 16 18 24 27 27 25 24 23 20 13 7 8 11 11 11 11 11 13 14 12 10 9 8 6 5 4 3 2 2 3 4 6 6
21 22 23 22 21 23 25 25 25 27 26 27 28 27 26 24 23 23 23 22 22 21 21 22 21 21 21 21 22 23 23 21 20 19 18 17 16 16 17 17 16 16 16 17 17 16 16 16 17 17 17 17 17 17 21 25 28 27 25 24 22 17 9 7 8 10 11 10 9 12 13 12 10 9 8 6 5 4 3 3 2 3 4 4 5
21 22 23 22 21 22 23 24 25 26 25 26 26 25 24 24 23 23 22 21 21 21 21 22 23 23 22 23 24 25 23 21 21 21 20 18 17 16 16 16 16 15 16 17 17 17 17 17 17 17 17 17 17 16 18 23 27 27 26 25 24 19 12 10 8 6 7 9 9 11 12 11 10 9 8 6 6 5 4 4 4 4 4 4 6
20 22 23 23 22 23 24 25 25 25 25 25 24 22 22 23 23 22 21 21 21 21 21 22 24 25 26 25 26 25 23 22 22 22 20 19 18 17 17 17 17 16 16 17 17 18 17 17 17 17 16 17 17 16 17 22 26 26 26 26 26 22 17 15 12 6 2 4 9 11 10 10 10 9 7 7 6 5 5 5 4 3 4 6 8
20 21 22 22 21 23 24 24 24 24 23 23 23 22 22 21 21 22 22 21 21 22 22 22 22 24 27 28 27 26 23 22 22 21 19 18 19 18 17 17 17 17 17 17 18 18 17 17 16 16 16 17 17 16 16 20 25 27 26 27 27 25 21 19 18 12 4 3 6 9 10 10 9 9 8 7 7 8 9 8 6 5 5 7 8
18 20 21 20 20 21 22 23 23 22 21 22 22 22 22 22 23 24 23 21 20 21 22 22 22 25 28 30 30 28 23 21 21 21 19 18 18 18 18 18 18 17 17 17 17 17 17 17 16 16 16 16 16 16 15 18 22 25 26 26 26 25 23 22 21 16 9 6 7 9 11 11 10 9 10 10 10 11 12 11 10 10 9 8 7
19 19 19 19 20 21 20 20 21 21 21 21 21 21 22 23 25 24 22 21 20 19 20 21 23 27 29 30 31 29 24 20 20 20 19 18 18 17 18 18 18 17 16 17 17 17 17 16 16 16 16 15 16 16 15 16 20 22 22 22 22 22 22 21 20 15 10 8 9 10 11 11 10 10 11 11 12 13 13 13 11 10 8 8 8
18 19 18 17 19 21 20 20 19 20 20 20 20 20 21 22 23 23 21 21 19 18 18 20 21 24 26 26 27 27 23 20 20 20 18 18 18 18 17 17 18 18 17 16 16 15 15 15 14 15 15 15 15 16 16 16 19 21 20 19 19 20 19 19 18 16 12 10 10 10 11 11 11 12 12 12 13 13 12 12 10 7 7 8 7
18 19 17 16 18 20 21 20 19 19 19 19 19 19 20 21 22 22 21 20 19 18 19 20 20 21 22 22 22 22 20 19 20 20 18 17 19 19 18 17 18 19 18 16 14 13 14 16 14 12 13 14 12 13 15 15 17 20 20 18 18 19 18 17 18 18 14 12 11 12 12 12 13 12 12 12 11 10 9 9 8 7 8 7 6
17 17 17 16 17 19 20 20 19 19 20 19 19 19 20 21 22 21 20 19 20 20 20 20 19 20 21 21 21 21 20 19 20 20 18 18 18 18 18 18 18 18 19 17 15 12 13 16 13 9 12 13 9 9 13 15 16 20 21 19 19 19 18 17 17 18 15 11 10 10 11 12 12 12 12 11 10 9 9 9 9 9 8 7 7
Wind_Direction
169 161 165 166 164 166 165 165 165 165 166 166 169 171 170 170 165 168 175 172 174 178 175 177 176 165 155 157 164 167 164 158 163 173 168 167 168 162 170 168 162 177 152 120 107 104 95 88 86 59 43 56 58 56 51 50 49 39 41 40 21 17 28 23 354 322 163 143 123 113 109 98 92 82 68 62 59 51 47 49 43 38 32 25 27
160 161 166 165 162 164 164 164 166 167 169 170 171 171 171 171 166 167 173 174 178 180 177 180 174 161 162 169 172 175 171 159 161 169 164 173 178 161 168 171 134 122 123 119 113 104 96 91 91 67 47 53 53 49 45 41 38 29 12 78 88 60 34 31 12 331 218 180 151 132 128 114 98 88 75 66 65 59 54 52 47 42 33 25 22
160 164 164 164 163 165 167 168 169 169 170 172 173 171 171 172 170 168 170 174 180 181 181 180 167 164 174 178 175 171 165 156 159 169 170 177 180 160 157 165 135 123 128 129 120 106 100 92 80 60 43 44 44 39 36 29 23 17 346 312 112 103 70 37 26 8 339 240 173 159 155 138 111 100 87 69 68 68 62 55 49 41 33 29 24
163 168 165 164 164 168 172 172 169 167 169 172 172 171 171 173 171 169 170 174 179 182 183 176 165 166 171 171 167 159 154 154 159 170 175 169 164 156 154 156 144 135 135 130 118 99 93 84 68 54 41 36 34 31 27 28 24 17 18 346 300 112 93 44 31 33 18 6 213 212 192 176 151 126 111 89 88 80 71 65 53 43 34 29 26
170 172 170 167 168 170 173 173 169 167 171 172 171 171 171 172 172 170 171 175 178 178 175 170 166 161 154 154 154 148 149 155 162 171 174 166 160 158 152 151 148 136 128 121 110 95 86 79 66 51 40 34 34 33 29 39 46 41 49 48 353 45 98 74 42 45 40 39 25 341 213 197 131 140 139 112 106 90 81 77 59 48 38 28 28
175 175 171 166 168 170 173 174 170 169 173 171 170 173 172 171 173 173 174 177 176 171 170 169 168 160 155 158 157 154 159 164 171 172 167 166 164 156 146 145 141 130 126 117 107 99 83 73 65 51 40 38 39 50 55 57 58 55 53 62 58 49 91 108 69 61 52 50 49 46 53 23 50 149 161 129 122 114 98 88 70 57 40 28 26
177 177 171 166 168 172 173 171 169 172 173 171 172 173 170 168 173 176 175 175 170 168 173 174 169 164 164 165 160 163 170 172 172 169 164 160 154 150 145 136 135 137 133 121 108 104 90 78 69 58 52 53 62 74 69 65 62 59 57 60 63 51 62 92 80 78 65 52 54 56 59 49 40 65 107 107 145 148 115 96 88 67 36 23 17
180 178 175 170 170 172 171 166 170 175 172 169 167 162 161 169 177 177 173 172 170 170 176 176 170 167 169 166 164 172 177 169 165 164 162 152 141 144 143 135 137 142 137 127 116 106 95 87 82 77 78 78 86 84 72 71 68 64 63 64 66 59 60 74 72 71 72 60 56 54 54 55 50 41 26 1 312 174 140 136 129 98 39 16 4
183 177 174 172 170 170 168 167 173 174 167 159 150 145 159 176 180 174 173 177 174 171 174 175 173 170 169 166 167 172 168 165 163 159 155 148 141 139 139 137 140 143 139 128 109 91 84 91 93 91 96 98 93 88 79 76 74 71 70 68 72 72 65 70 72 67 66 57 51 49 46 48 50 43 30 15 1 10 112 136 152 153 163 75 358
187 178 171 168 166 167 167 167 169 168 157 146 145 149 165 180 181 174 181 183 176 173 172 175 182 178 170 168 166 163 162 164 162 157 154 149 142 137 140 142 141 143 137 116 95 86 90 95 97 97 99 100 93 88 84 80 79 79 80 77 77 79 74 71 73 69 64 57 50 49 47 45 48 42 30 26 19 12 35 63 110 225 188 147 13
186 176 167 164 163 163 164 164 163 162 151 142 154 167 172 182 185 177 177 177 175 177 174 177 189 184 171 167 165 163 165 163 158 155 155 151 144 142 145 144 141 140 129 115 110 101 97 98 104 105 100 99 94 89 86 84 86 87 86 84 80 78 76 73 72 70 66 62 57 56 55 47 46 44 29 19 17 8 356 26 25 321 267 136 137
181 172 163 162 162 160 163 163 160 160 155 146 157 171 175 183 186 177 168 169 173 177 175 177 185 183 174 168 166 168 168 162 158 158 158 155 150 149 149 144 139 135 124 115 112 105 106 111 115 112 102 99 95 90 90 93 96 95 89 85 81 77 77 75 71 69 68 66 62 59 59 55 49 43 31 22 20 8 347 355 34 356 339 90 115
178 172 165 162 161 158 163 166 161 161 159 155 160 171 179 182 181 175 169 172 175 176 177 177 175 175 175 172 168 170 169 166 163 160 160 159 155 155 153 146 137 132 125 118 114 116 122 127 125 115 106 102 97 94 97 101 100 97 91 86 84 81 80 79 75 72 71 70 67 62 60 58 53 43 35 33 27 21 12 1 10 8 355 13 93
175 173 170 163 161 160 164 166 165 164 161 160 164 172 178 176 174 174 172 174 176 175 179 178 172 172 174 173 171 170 169 166 164 163 163 164 162 160 155 147 138 134 132 130 129 135 138 137 131 116 109 104 101 102 102 103 101 97 93 90 87 85 83 82 80 76 73 69 69 69 64 60 54 45 41 40 35 31 28 7 348 344 10 6 26
172 172 172 166 161 162 166 165 164 167 163 160 166 174 178 175 175 176 172 173 176 177 180 178 175 176 174 173 174 174 171 163 163 167 167 166 164 160 153 144 139 136 139 139 139 144 142 139 130 116 111 109 107 110 107 103 101 98 97 94 91 89 87 86 82 78 75 72 72 72 68 61 54 46 44 43 39 34 30 18 4 354 19 18 17
173 172 173 169 163 163 166 164 163 167 164 160 168 177 178 176 176 173 169 173 177 180 182 178 177 179 176 172 172 175 172 162 160 166 165 165 164 160 155 149 144 141 142 143 144 147 146 138 127 117 116 115 113 114 110 106 104 102 101 98 95 93 90 88 83 79 78 76 74 73 70 62 53 49 47 42 40 38 32 28 23 14 7 5 9
176 174 172 170 167 165 166 165 165 168 166 163 169 175 174 171 168 165 167 175 180 181 181 178 178 179 174 169 166 170 169 162 158 162 163 166 166 161 159 154 148 142 140 144 147 147 145 136 125 121 121 119 118 117 113 111 109 106 104 101 100 99 93 88 85 85 84 81 76 73 70 65 56 51 49 42 39 39 35 31 31 23 12 3 -0
179 177 171 167 168 166 165 167 168 169 165 162 165 169 170 166 164 166 172 176 178 178 179 178 175 171 169 168 166 167 166 160 157 159 163 170 168 162 159 156 150 143 141 145 147 144 141 134 127 126 126 123 121 119 116 115 113 110 107 105 105 102 96 93 92 93 91 87 83 78 74 70 62 55 52 48 40 36 36 33 32 28 20 16 2
180 180 169 164 168 165 165 169 169 167 163 159 159 163 165 165 168 172 173 171 171 174 175 173 168 164 168 172 170 165 161 158 158 158 161 166 163 158 158 154 147 143 143 144 144 142 139 135 133 130 128 125 123 122 121 119 115 114 112 110 109 105 103 103 101 100 98 95 92 87 83 77 68 61 53 49 44 37 35 33 32 30 24 18 3
183 182 168 164 167 166 167 169 167 164 162 158 156 160 164 169 172 172 170 169 173 172 169 165 162 162 167 170 168 163 159 157 158 156 155 157 157 156 155 150 143 142 147 147 146 144 141 139 137 134 132 130 128 128 126 122 119 118 117 116 114 113 112 110 110 108 106 105 100 94 89 78 68 65 54 48 50 43 38 34 29 28 24 13 1
183 180 167 163 165 167 168 167 163 160 160 159 157 158 163 166 167 168 170 172 173 170 167 163 160 163 167 166 164 161 157 155 155 155 155 156 155 153 149 144 143 146 151 151 147 144 143 141 139 138 136 135 134 133 129 126 124 123 122 121 120 121 119 118 119 116 112 110 105 98 91 78 67 60 53 53 53 45 45 41 31 26 22 11 -0
185 179 167 162 164 166 165 164 162 159 160 161 156 155 160 163 164 168 174 173 169 168 168 163 160 166 170 166 160 159 158 155 156 158 159 158 155 151 146 144 146 149 153 153 148 145 145 143 142 141 139 139 138 134 131 130 129 127 125 125 126 126 125 125 126 122 116 113 107 100 93 82 71 59 51 51 45 40 43 39 31 23 14 6 359
186 177 163 158 162 164 163 162 162 159 161 161 154 154 162 164 164 168 173 173 169 167 166 159 157 165 170 165 159 159 160 157 158 161 160 158 156 151 145 143 147 151 154 153 149 147 147 145 144 142 141 142 138 134 134 134 133 132 130 128 129 129 131 132 130 127 124 118 110 104 97 86 78 66 56 51 41 38 40 33 22 16 6 359 352
187 174 158 156 159 161 161 161 161 160 162 162 156 156 163 166 165 167 170 172 171 169 165 157 155 164 167 165 160 159 159 157 158 160 159 157 155 151 145 146 152 154 154 152 150 149 148 146 145 144 144 143 140 137 138 137 136 136 134 132 133 134 136 136 133 130 126 121 115 108 101 92 82 71 58 51 44 37 38 32 15 2 2 356 344
185 168 156 156 157 160 162 161 162 161 162 162 158 157 163 166 165 166 170 172 169 166 163 157 160 166 166 163 162 160 159 159 160 160 159 157 154 150 148 152 155 154 154 153 152 151 150 148 147 147 146 145 143 142 141 141 140 138 137 137 137 139 139 135 132 129 125 121 117 108 101 94 83 71 56 45 40 32 31 30 13 358 358 351 338
179 164 155 155 157 160 161 158 160 162 162 161 159 161 163 164 164 165 168 167 164 164 162 159 162 166 165 164 163 159 158 160 161 161 161 159 155 149 150 154 156 156 156 155 155 154 153 152 151 150 149 147 146 145 145 144 143 141 141 140 139 140 138 136 133 129 125 123 117 108 99 90 80 69 54 38 32 29 26 23 10 358 356 348 339
174 162 155 157 159 158 156 156 157 158 160 160 160 160 159 159 162 164 163 160 160 163 162 161 162 163 164 163 162 159 157 161 164 163 162 161 156 150 151 156 157 158 158 158 157 156 156 155 153 152 151 150 149 149 149 147 146 145 144 143 143 142 140 139 137 132 128 127 119 110 98 88 79 68 55 39 30 24 19 18 10 360 354 347 342
172 161 157 159 160 157 154 155 153 152 155 157 159 158 156 157 160 160 159 158 160 161 161 162 162 160 160 160 160 159 157 162 166 165 163 161 156 152 155 158 159 160 162 162 159 158 157 155 154 153 151 152 153 154 154 152 150 149 148 148 147 146 144 143 139 136 134 130 122 109 97 91 89 86 75 59 50 44 28 16 9 2 357 352 348
169 161 159 159 160 157 152 152 154 155 155 155 157 160 160 159 159 159 159 159 160 160 160 161 160 158 158 157 157 158 158 163 166 165 163 161 155 153 158 160 162 164 165 164 161 160 159 156 155 154 153 154 155 157 159 159 156 153 152 152 150 149 149 147 145 144 142 137 127 114 108 106 102 89 73 61 56 54 47 33 19 11 5 358 353
167 159 158 159 159 155 153 155 158 159 157 155 158 163 162 160 159 158 158 158 159 159 158 158 157 156 156 154 155 158 161 164 165 164 164 161 154 155 162 164 166 167 167 165 163 162 162 160 159 157 156 157 159 163 166 163 159 156 154 153 152 153 154 153 154 152 149 144 134 124 118 108 90 71 56 48 44 44 49 48 40 34 27 14 -0
164 158 158 162 162 159 161 163 160 159 158 157 160 163 162 160 159 157 157 158 159 158 157 156 152 151 155 157 157 159 163 164 164 165 164 160 156 160 167 169 169 170 169 166 165 165 164 163 163 160 159 159 162 171 171 165 160 157 154 152 154 156 157 159 160 159 157 153 144 138 131 104 65 38 21 20 22 30 39 39 34 33 30 23 13
164 163 164 166 166 167 168 164 159 159 161 160 160 162 162 160 159 158 158 159 159 159 158 156 151 151 157 161 160 160 162 163 164 166 164 160 163 168 174 176 173 171 170 168 168 168 166 166 164 162 162 162 166 178 177 169 163 159 154 152 156 158 161 165 167 166 165 159 152 150 150 144 145 162 215 316 338 354 8 15 13 10 12 12 11
164 166 167 165 165 166 165 161 159 161 162 161 160 162 162 159 158 158 158 158 158 158 156 154 153 153 157 161 164 164 163 163 164 166 164 163 171 179 182 183 177 173 171 170 171 170 168 167 166 163 163 161 168 181 181 175 168 161 156 153 154 160 165 170 173 171 169 163 158 159 163 164 154 133 129 255 298 312 331 351 351 340 343 351 -0
163 163 166 166 165 165 164 163 163 163 163 162 161 163 162 157 156 158 157 155 157 159 156 153 152 154 155 158 163 165 165 166 166 166 166 171 182 187 185 183 181 177 173 172 173 172 169 169 167 164 164 166 173 183 184 181 172 164 161 155 153 162 166 167 172 172 169 167 164 168 171 166 153 132 137 161 175 291 313 335 331 314 311 315 339
165 166 165 167 166 164 164 164 163 164 166 164 160 161 161 157 156 158 156 154 157 159 156 152 153 158 160 160 163 164 165 167 168 169 174 183 190 189 184 183 182 179 174 173 175 173 171 170 168 164 165 173 183 184 184 183 175 169 167 157 151 163 163 163 172 172 168 168 168 171 171 158 148 149 162 158 149 153 282 326 328 319 309 291 301
166 173 166 163 164 164 164 162 161 164 166 163 158 156 156 157 157 159 158 158 160 160 156 154 156 161 164 166 168 169 170 173 175 178 185 190 190 187 185 184 182 177 174 175 175 173 171 169 168 167 166 173 183 183 181 181 176 172 170 162 161 170 166 166 175 175 169 170 170 173 174 161 152 164 174 152 136 123 89 335 327 334 332 321 327
160 170 163 159 163 164 163 161 161 164 163 161 158 156 157 159 157 157 159 160 161 160 156 157 161 164 167 171 174 177 179 182 184 186 190 189 186 185 185 184 180 175 173 174 172 171 172 171 170 170 169 172 182 186 184 181 178 174 172 175 180 177 172 173 178 180 176 173 177 182 177 166 166 179 180 152 138 115 59 352 329 337 336 345 352
156 163 159 160 163 162 159 159 161 164 162 159 160 160 162 164 162 161 164 166 166 165 162 163 168 170 172 175 180 183 185 185 185 188 189 185 183 185 185 182 178 173 170 170 169 170 175 177 176 175 176 177 183 190 190 184 180 177 177 190 198 182 178 181 180 184 183 179 191 193 171 152 176 190 176 151 145 125 67 7 331 341 342 350 353
160 161 157 157 158 156 156 159 161 163 160 160 162 163 167 169 167 166 169 171 173 173 170 170 172 174 176 179 182 185 185 182 181 184 185 183 182 183 182 178 176 175 171 169 171 175 179 181 181 182 185 184 184 192 193 186 183 183 186 200 212 191 183 187 185 188 188 178 190 195 181 169 183 187 168 149 147 138 111 36 344 349 349 348 347
163 162 155 151 152 154 159 163 163 163 162 163 164 166 170 173 171 169 171 173 175 176 175 174 173 175 177 178 180 181 180 177 176 177 176 174 173 172 171 170 172 173 172 172 175 178 180 183 185 187 191 190 187 191 194 190 188 190 192 202 217 206 190 191 191 191 191 181 177 187 192 193 191 181 168 153 144 140 133 95 6 357 349 341 341
158 154 151 151 152 156 164 169 168 166 166 167 168 169 171 173 173 174 177 177 176 176 174 171 169 171 173 172 173 173 172 171 170 167 163 162 162 162 160 162 166 169 171 173 175 178 182 185 189 191 194 195 190 190 195 194 192 195 196 201 216 224 202 193 198 197 193 191 188 187 195 202 195 182 173 165 154 141 130 115 339 327 342 341 339
146 143 150 157 157 160 169 173 170 167 168 170 172 173 172 169 169 172 173 173 174 171 167 164 164 164 163 161 161 163 164 164 163 159 157 156 158 159 159 162 168 171 173 175 177 181 185 187 191 194 195 197 195 193 197 198 195 198 200 201 211 225 210 186 201 205 198 200 197 189 193 203 202 190 182 177 177 170 150 160 253 306 335 343 344
141 143 153 161 162 166 172 172 169 170 171 174 176 175 173 170 169 167 162 160 160 157 155 157 158 157 157 158 160 162 162 161 159 159 160 160 160 161 163 169 175 177 178 179 180 184 187 187 190 193 194 196 196 196 203 203 199 201 205 204 210 221 216 190 204 213 208 208 198 184 191 207 209 198 193 192 198 210 215 224 270 318 328 330 332
147 152 157 161 163 168 171 168 168 172 174 177 177 173 172 176 175 166 156 152 152 150 149 154 156 157 160 162 164 165 163 160 158 158 159 160 162 165 168 173 180 182 183 185 186 187 189 189 189 191 193 194 193 194 204 207 204 204 208 209 212 219 218 205 209 220 217 212 201 188 195 210 211 203 205 211 213 223 237 248 277 310 317 306 304
155 159 164 167 164 164 166 164 167 172 174 176 174 166 166 174 173 162 156 155 156 155 156 158 159 163 167 166 166 167 165 162 161 160 160 163 167 169 172 178 185 187 188 189 189 189 191 191 191 191 191 191 190 190 198 205 207 207 210 213 216 219 217 209 210 224 224 191 192 193 198 210 211 207 214 222 224 244 271 268 269 297 315 297 287
160 160 169 171 161 160 163 161 166 172 173 176 176 169 167 170 168 165 167 166 163 162 163 162 160 165 170 170 168 167 166 165 166 167 170 173 172 172 175 181 186 190 192 193 192 192 193 193 192 194 192 190 190 188 190 199 205 207 211 216 219 220 217 211 214 223 223 173 190 204 209 216 217 214 223 233 238 256 269 269 265 270 281 279 278
162 162 173 171 161 163 165 161 165 172 172 176 181 178 176 174 169 169 173 174 173 168 163 161 161 166 172 174 172 170 170 171 174 177 178 178 177 179 182 185 188 192 196 197 195 193 195 195 194 194 192 190 192 191 186 190 198 203 208 215 219 220 218 214 216 223 228 220 222 225 221 221 223 226 235 240 241 245 253 258 260 256 251 252 264
160 166 180 174 161 165 166 161 165 172 173 177 180 179 178 176 172 172 174 177 179 172 162 160 164 168 171 172 172 172 173 174 178 181 182 181 183 187 189 188 189 192 197 200 199 196 198 198 195 193 192 191 193 195 191 187 190 195 200 206 211 213 213 213 214 219 224 225 227 228 225 224 228 236 240 242 242 240 243 248 254 253 251 256 266
158 168 183 175 161 164 166 163 167 171 173 178 179 176 175 174 171 171 173 176 180 175 163 158 159 163 166 168 170 174 174 174 177 179 181 186 191 194 194 191 191 195 200 203 201 198 199 201 198 196 196 194 195 198 197 192 190 191 192 196 200 200 202 207 208 207 212 217 215 217 220 222 227 232 236 240 243 240 238 241 244 248 259 267 274
162 169 177 170 162 165 166 166 170 172 172 177 179 173 170 169 169 172 174 176 178 176 168 159 157 161 164 165 169 174 175 175 177 177 177 184 191 198 200 196 194 199 202 200 195 193 196 200 199 193 189 189 192 197 196 193 191 190 189 193 197 194 196 202 201 199 207 216 213 214 221 224 226 230 232 239 245 245 247 253 255 257 260 261 269
163 169 175 170 162 164 167 168 172 172 171 176 179 172 166 166 170 174 177 178 177 175 169 162 160 166 168 168 170 174 174 176 179 179 180 183 187 194 198 197 197 201 203 200 195 192 190 191 189 180 178 179 175 182 193 197 195 191 190 193 195 192 193 198 198 199 208 217 219 224 232 232 231 234 236 240 246 250 254 260 262 262 263 263 267